Powrót do katalogu

COSMOS 1275 DEB

AktywnyPO
NORAD 14441·DEBRIS·🇷🇺 Russia

Wystrzelony Jun 4, 1981 z Plesetsk Cosmodrome

Loading…

Następne Przeloty (najbliższe 24 godziny)

TLE

ŚwieżeSource: Space-Track

Epoka: Sep 14, 2026, 14:32 UTC

1 14441U 81053JH  26257.60605905  .00001809  00000-0  95626-3 0  9993
2 14441  83.1133 204.9830 0046360  58.5558 302.0139 14.12739115285698

Śledź COSMOS 1275 DEB w czasie rzeczywistym z AllMySat

Download on the App Store